SUD002 HECA-LGSK

Flight info

Callsign SUD002
Flight time 1h 51m
Altitude 36000
Route CVO DCT NOZ DCT ANTAR UN133 KPC UN137 RIPLI UL995 KEA UN132 ROPOX UM749 SIGFO
Aircraft A320/M-SDFGHILORVWY/S

Departure

Time 2026-04-20 12:43
Airport Cairo International Airport (HECA)

Arrival

Time 2026-04-20 14:34
Airport Skiathos Island National Airport (LGSK)
Time Latitude Longitude Altitude Speed Heading
2026-04-20 12:19 30.10857 31.40296 374 ft 0 kts 142°
2026-04-20 12:31 30.10865 31.40288 374 ft 4 kts 141°
2026-04-20 12:31 30.10886 31.40268 374 ft 4 kts 136°
2026-04-20 12:31 30.10904 31.40246 374 ft 4 kts 126°
2026-04-20 12:31 30.10916 31.40220 374 ft 4 kts 92°
2026-04-20 12:32 30.10912 31.40203 374 ft 1 kts 49°
2026-04-20 12:32 30.10910 31.40200 374 ft 0 kts 49°
2026-04-20 12:34 30.10912 31.40202 374 ft 2 kts 49°
2026-04-20 12:34 30.10928 31.40224 374 ft 6 kts 49°
2026-04-20 12:35 30.10961 31.40274 374 ft 9 kts 66°
2026-04-20 12:35 30.10951 31.40357 374 ft 10 kts 107°
2026-04-20 12:35 30.10930 31.40438 374 ft 10 kts 107°
2026-04-20 12:35 30.10917 31.40514 374 ft 9 kts 82°
2026-04-20 12:36 30.10945 31.40571 374 ft 8 kts 48°
2026-04-20 12:36 30.10992 31.40630 375 ft 12 kts 49°
2026-04-20 12:36 30.11047 31.40704 375 ft 13 kts 49°
2026-04-20 12:36 30.11087 31.40789 375 ft 13 kts 99°
2026-04-20 12:37 30.11060 31.40880 375 ft 14 kts 64°
2026-04-20 12:37 30.11126 31.40969 375 ft 14 kts 49°
2026-04-20 12:37 30.11202 31.41070 375 ft 19 kts 48°
2026-04-20 12:37 30.11291 31.41188 375 ft 18 kts 49°
2026-04-20 12:38 30.11376 31.41300 375 ft 19 kts 49°
2026-04-20 12:38 30.11450 31.41399 375 ft 18 kts 49°
2026-04-20 12:38 30.11543 31.41522 375 ft 22 kts 49°
2026-04-20 12:38 30.11654 31.41668 375 ft 25 kts 50°
2026-04-20 12:39 30.11866 31.41951 375 ft 24 kts 50°
2026-04-20 12:39 30.11986 31.42111 375 ft 28 kts 52°
2026-04-20 12:39 30.12089 31.42248 375 ft 21 kts 48°
2026-04-20 12:40 30.12175 31.42363 375 ft 19 kts 49°
2026-04-20 12:40 30.12240 31.42450 375 ft 11 kts 49°
2026-04-20 12:40 30.12300 31.42529 375 ft 13 kts 49°
2026-04-20 12:40 30.12329 31.42601 375 ft 9 kts 98°
2026-04-20 12:41 30.12283 31.42664 375 ft 12 kts 140°
2026-04-20 12:41 30.12216 31.42729 372 ft 12 kts 139°
2026-04-20 12:41 30.12157 31.42734 371 ft 9 kts 223°
2026-04-20 12:41 30.12130 31.42699 371 ft 0 kts 229°
2026-04-20 12:42 30.12126 31.42695 371 ft 5 kts 229°
2026-04-20 12:42 30.11945 31.42452 372 ft 76 kts 232°
2026-04-20 12:42 30.11459 31.41803 375 ft 134 kts 231°
2026-04-20 12:42 30.10746 31.40854 419 ft 173 kts 230°
2026-04-20 12:43 30.09927 31.39804 966 ft 178 kts 232°
2026-04-20 12:43 30.09096 31.38712 1589 ft 182 kts 233°
2026-04-20 12:43 30.08255 31.37603 2229 ft 188 kts 233°
2026-04-20 12:43 30.07358 31.36404 2636 ft 206 kts 232°
2026-04-20 12:44 30.06385 31.35101 3138 ft 223 kts 233°
2026-04-20 12:44 30.05406 31.33638 3660 ft 236 kts 247°
2026-04-20 12:44 30.05029 31.31787 4207 ft 244 kts 275°
2026-04-20 12:44 30.05548 31.29913 4879 ft 250 kts 306°
2026-04-20 12:45 30.06732 31.28413 5691 ft 256 kts 314°
2026-04-20 12:45 30.07996 31.26944 6507 ft 259 kts 315°
2026-04-20 12:45 30.09274 31.25457 7287 ft 263 kts 314°
2026-04-20 12:45 30.10568 31.23946 8040 ft 266 kts 314°
2026-04-20 12:46 30.11875 31.22417 8814 ft 269 kts 314°
2026-04-20 12:46 30.13197 31.20867 9563 ft 273 kts 314°
2026-04-20 12:46 30.14540 31.19294 10253 ft 278 kts 313°
2026-04-20 12:46 30.15936 31.17656 10620 ft 294 kts 313°
2026-04-20 12:47 30.17411 31.15923 10953 ft 311 kts 313°
2026-04-20 12:47 30.18968 31.14094 11259 ft 328 kts 313°
2026-04-20 12:47 30.20609 31.12167 11563 ft 344 kts 313°
2026-04-20 12:47 30.22315 31.10161 11980 ft 354 kts 313°
2026-04-20 12:48 30.24057 31.08118 12603 ft 358 kts 313°
2026-04-20 12:48 30.25813 31.06059 13245 ft 361 kts 313°
2026-04-20 12:48 30.27578 31.03984 13869 ft 364 kts 313°
2026-04-20 12:48 30.29361 31.01884 14422 ft 367 kts 312°
2026-04-20 12:49 30.31160 30.99763 14983 ft 370 kts 312°
2026-04-20 12:49 30.32973 30.97629 15543 ft 373 kts 312°
2026-04-20 12:49 30.34796 30.95481 16112 ft 376 kts 312°
2026-04-20 12:49 30.36632 30.93309 16674 ft 378 kts 312°
2026-04-20 12:50 30.38477 30.91124 17217 ft 381 kts 312°
2026-04-20 12:50 30.40341 30.88918 17775 ft 384 kts 312°
2026-04-20 12:50 30.42219 30.86697 18315 ft 387 kts 312°
2026-04-20 12:50 30.44111 30.84461 18795 ft 390 kts 311°
2026-04-20 12:51 30.46013 30.82216 19256 ft 392 kts 311°
2026-04-20 12:51 30.47929 30.79947 19738 ft 394 kts 311°
2026-04-20 12:51 30.49846 30.77671 20193 ft 396 kts 311°
2026-04-20 12:51 30.51774 30.75378 20633 ft 398 kts 311°
2026-04-20 12:52 30.53711 30.73071 21067 ft 400 kts 311°
2026-04-20 12:52 30.55661 30.70752 21491 ft 402 kts 311°
2026-04-20 12:52 30.57626 30.68417 21901 ft 405 kts 311°
2026-04-20 12:52 30.59594 30.66081 22292 ft 407 kts 311°
2026-04-20 12:53 30.61578 30.63725 22681 ft 409 kts 311°
2026-04-20 12:53 30.63570 30.61356 23048 ft 411 kts 311°
2026-04-20 12:53 30.65574 30.58969 23416 ft 413 kts 311°
2026-04-20 12:53 30.67583 30.56576 23738 ft 415 kts 311°
2026-04-20 12:54 30.69604 30.54172 24034 ft 417 kts 311°
2026-04-20 12:54 30.71633 30.51757 24346 ft 418 kts 311°
2026-04-20 12:54 30.73667 30.49332 24653 ft 419 kts 311°
2026-04-20 12:54 30.75698 30.46906 24954 ft 420 kts 311°
2026-04-20 12:55 30.77713 30.44498 25235 ft 421 kts 310°
2026-04-20 12:55 30.79785 30.42019 25534 ft 422 kts 310°
2026-04-20 12:55 30.81832 30.39564 25821 ft 423 kts 310°
2026-04-20 12:55 30.83883 30.37107 26092 ft 424 kts 310°
2026-04-20 12:56 30.85914 30.34674 26352 ft 425 kts 310°
2026-04-20 12:56 30.88003 30.32166 26609 ft 426 kts 310°
2026-04-20 12:56 30.90066 30.29688 26855 ft 427 kts 310°
2026-04-20 12:56 30.92113 30.27229 27087 ft 428 kts 310°
2026-04-20 12:57 30.94189 30.24730 27315 ft 430 kts 310°
2026-04-20 12:57 30.96269 30.22226 27539 ft 430 kts 310°
2026-04-20 12:57 30.98351 30.19718 27759 ft 431 kts 310°
2026-04-20 12:57 31.00437 30.17206 27965 ft 432 kts 310°
2026-04-20 12:58 31.02561 30.14647 28159 ft 433 kts 310°
2026-04-20 12:58 31.04652 30.12124 28334 ft 434 kts 310°
2026-04-20 12:58 31.06041 30.10447 28443 ft 434 kts 310°
2026-04-20 12:58 31.08854 30.07054 28651 ft 435 kts 310°
2026-04-20 12:59 31.10961 30.04513 28788 ft 436 kts 310°
2026-04-20 12:59 31.14457 30.00280 29025 ft 436 kts 310°
2026-04-20 12:59 31.16562 29.97729 29163 ft 436 kts 310°
2026-04-20 13:00 31.19632 29.94657 29367 ft 442 kts 322°
2026-04-20 13:00 31.21410 29.93418 29651 ft 442 kts 327°
2026-04-20 13:00 31.24113 29.91752 30139 ft 436 kts 327°
2026-04-20 13:00 31.26784 29.90095 30436 ft 434 kts 326°
2026-04-20 13:01 31.29441 29.88434 30678 ft 433 kts 326°
2026-04-20 13:01 31.32092 29.86771 30899 ft 432 kts 326°
2026-04-20 13:01 31.34733 29.85113 31124 ft 431 kts 326°
2026-04-20 13:01 31.37380 29.83453 31346 ft 431 kts 326°
2026-04-20 13:02 31.40016 29.81798 31565 ft 430 kts 326°
2026-04-20 13:02 31.42650 29.80144 31791 ft 429 kts 326°
2026-04-20 13:02 31.45281 29.78488 32012 ft 429 kts 326°
2026-04-20 13:02 31.47909 29.76833 32246 ft 428 kts 326°
2026-04-20 13:03 31.50529 29.75183 32451 ft 428 kts 326°
2026-04-20 13:03 31.53150 29.73534 32679 ft 427 kts 326°
2026-04-20 13:03 31.55766 29.71890 32897 ft 426 kts 325°
2026-04-20 13:03 31.58378 29.70250 33123 ft 426 kts 325°
2026-04-20 13:04 31.60986 29.68609 33343 ft 425 kts 325°
2026-04-20 13:04 31.63586 29.66969 33550 ft 424 kts 325°
2026-04-20 13:04 31.66179 29.65332 33772 ft 423 kts 325°
2026-04-20 13:04 31.68771 29.63698 33988 ft 423 kts 325°
2026-04-20 13:05 31.71366 29.62063 34184 ft 422 kts 325°
2026-04-20 13:05 31.73953 29.60431 34368 ft 422 kts 325°
2026-04-20 13:05 31.76531 29.58802 34539 ft 421 kts 325°
2026-04-20 13:05 31.79111 29.57166 34709 ft 421 kts 324°
2026-04-20 13:06 31.81654 29.55551 34869 ft 421 kts 324°
2026-04-20 13:06 31.84232 29.53913 35026 ft 421 kts 324°
2026-04-20 13:06 31.86806 29.52279 35181 ft 420 kts 324°
2026-04-20 13:06 31.89411 29.50627 35331 ft 420 kts 324°
2026-04-20 13:07 31.91949 29.49017 35473 ft 420 kts 324°
2026-04-20 13:07 31.94516 29.47384 35612 ft 420 kts 324°
2026-04-20 13:07 31.97087 29.45747 35749 ft 419 kts 324°
2026-04-20 13:07 31.99650 29.44116 35878 ft 419 kts 324°
2026-04-20 13:08 32.02209 29.42487 36007 ft 419 kts 324°
2026-04-20 13:08 32.07355 29.39210 36049 ft 422 kts 324°
2026-04-20 13:09 32.12548 29.35885 36048 ft 426 kts 324°
2026-04-20 13:09 32.17785 29.32536 36048 ft 430 kts 324°
2026-04-20 13:10 32.23050 29.29180 36048 ft 430 kts 324°
2026-04-20 13:10 32.28318 29.25813 36045 ft 430 kts 324°
2026-04-20 13:11 32.33579 29.22445 36047 ft 430 kts 324°
2026-04-20 13:11 32.38835 29.19064 36042 ft 430 kts 324°
2026-04-20 13:12 32.44088 29.15683 36043 ft 430 kts 324°
2026-04-20 13:12 32.49348 29.12296 36040 ft 430 kts 324°
2026-04-20 13:13 32.54601 29.08917 36038 ft 430 kts 324°
2026-04-20 13:13 32.59856 29.05527 36035 ft 430 kts 324°
2026-04-20 13:14 32.65109 29.02133 36036 ft 430 kts 324°
2026-04-20 13:14 32.70361 28.98733 36046 ft 430 kts 324°
2026-04-20 13:15 32.75605 28.95321 36048 ft 430 kts 324°
2026-04-20 13:15 32.80859 28.91912 36046 ft 431 kts 324°
2026-04-20 13:16 32.86116 28.88504 36051 ft 430 kts 324°
2026-04-20 13:16 32.91365 28.85089 36048 ft 430 kts 324°
2026-04-20 13:17 32.96610 28.81664 36048 ft 430 kts 324°
2026-04-20 13:17 33.01851 28.78246 36054 ft 430 kts 324°
2026-04-20 13:18 33.07094 28.74818 36057 ft 430 kts 324°
2026-04-20 13:18 33.12304 28.71410 36054 ft 429 kts 324°
2026-04-20 13:19 33.17537 28.67980 36057 ft 429 kts 324°
2026-04-20 13:19 33.22769 28.64540 36059 ft 429 kts 324°
2026-04-20 13:20 33.27996 28.61099 36060 ft 429 kts 324°
2026-04-20 13:20 33.33209 28.57677 36060 ft 429 kts 324°
2026-04-20 13:21 33.38469 28.54220 36057 ft 429 kts 324°
2026-04-20 13:21 33.43695 28.50771 36057 ft 429 kts 324°
2026-04-20 13:22 33.48918 28.47311 36057 ft 429 kts 325°
2026-04-20 13:22 33.54136 28.43854 36058 ft 428 kts 325°
2026-04-20 13:23 33.59348 28.40401 36054 ft 428 kts 325°
2026-04-20 13:23 33.64563 28.36940 36052 ft 428 kts 325°
2026-04-20 13:24 33.69773 28.33480 36052 ft 428 kts 325°
2026-04-20 13:24 33.74975 28.30018 36054 ft 428 kts 325°
2026-04-20 13:25 33.80149 28.26522 36035 ft 421 kts 323°
2026-04-20 13:25 33.85074 28.22702 36033 ft 422 kts 320°
2026-04-20 13:26 33.89915 28.18691 36034 ft 423 kts 320°
2026-04-20 13:26 33.94801 28.14714 36032 ft 423 kts 321°
2026-04-20 13:27 33.99710 28.10799 36034 ft 424 kts 321°
2026-04-20 13:27 34.04631 28.06890 36040 ft 423 kts 321°
2026-04-20 13:28 34.09544 28.02966 36044 ft 423 kts 321°
2026-04-20 13:28 34.14444 27.99031 36049 ft 423 kts 321°
2026-04-20 13:29 34.19308 27.95115 36051 ft 423 kts 321°
2026-04-20 13:29 34.24241 27.91146 36051 ft 423 kts 321°
2026-04-20 13:30 34.29105 27.87232 36051 ft 423 kts 321°
2026-04-20 13:30 34.33997 27.83291 36048 ft 422 kts 322°
2026-04-20 13:31 34.38890 27.79351 36047 ft 422 kts 322°
2026-04-20 13:31 34.43771 27.75406 36044 ft 422 kts 322°
2026-04-20 13:32 34.48655 27.71447 36044 ft 422 kts 321°
2026-04-20 13:32 34.53532 27.67488 36043 ft 422 kts 322°
2026-04-20 13:33 34.58412 27.63529 36042 ft 422 kts 322°
2026-04-20 13:33 34.63291 27.59564 36046 ft 422 kts 322°
2026-04-20 13:34 34.68167 27.55591 36043 ft 422 kts 322°
2026-04-20 13:34 34.73023 27.51627 36042 ft 422 kts 322°
2026-04-20 13:35 34.77902 27.47645 36044 ft 422 kts 322°
2026-04-20 13:35 34.82780 27.43659 36044 ft 421 kts 322°
2026-04-20 13:36 34.87640 27.39677 36047 ft 421 kts 322°
2026-04-20 13:36 34.92498 27.35691 36046 ft 421 kts 322°
2026-04-20 13:37 34.97353 27.31696 36046 ft 421 kts 322°
2026-04-20 13:37 35.02208 27.27704 36043 ft 421 kts 322°
2026-04-20 13:38 35.07063 27.23710 36048 ft 421 kts 322°
2026-04-20 13:38 35.11910 27.19707 36036 ft 421 kts 322°
2026-04-20 13:39 35.16758 27.15712 36036 ft 421 kts 322°
2026-04-20 13:39 35.21607 27.11710 36027 ft 420 kts 322°
2026-04-20 13:40 35.26417 27.07726 36026 ft 420 kts 321°
2026-04-20 13:40 35.31254 27.03703 36019 ft 420 kts 321°
2026-04-20 13:41 35.36087 26.99677 36019 ft 420 kts 321°
2026-04-20 13:41 35.40912 26.95662 36024 ft 420 kts 322°
2026-04-20 13:42 35.45760 26.91638 36029 ft 420 kts 321°
2026-04-20 13:42 35.53003 26.85585 36039 ft 420 kts 321°
2026-04-20 13:43 35.57827 26.81553 36046 ft 420 kts 321°
2026-04-20 13:43 35.62647 26.77514 36051 ft 419 kts 321°
2026-04-20 13:44 35.67469 26.73465 36052 ft 419 kts 321°
2026-04-20 13:44 35.72281 26.69420 36051 ft 419 kts 321°
2026-04-20 13:45 35.77095 26.65367 36050 ft 419 kts 321°
2026-04-20 13:45 35.81102 26.61994 36049 ft 419 kts 321°
2026-04-20 13:46 35.85916 26.57931 36050 ft 419 kts 321°
2026-04-20 13:46 35.90727 26.53864 36051 ft 419 kts 321°
2026-04-20 13:47 35.95542 26.49781 36052 ft 419 kts 321°
2026-04-20 13:47 36.00351 26.45704 36050 ft 420 kts 321°
2026-04-20 13:48 36.05165 26.41623 36051 ft 420 kts 321°
2026-04-20 13:48 36.09977 26.37528 36051 ft 420 kts 321°
2026-04-20 13:49 36.14785 26.33433 36052 ft 420 kts 321°
2026-04-20 13:49 36.19599 26.29326 36052 ft 420 kts 321°
2026-04-20 13:50 36.24408 26.25215 36053 ft 420 kts 321°
2026-04-20 13:50 36.29214 26.21109 36052 ft 420 kts 321°
2026-04-20 13:51 36.34024 26.16991 36053 ft 420 kts 321°
2026-04-20 13:51 36.38829 26.12861 36054 ft 420 kts 321°
2026-04-20 13:52 36.43631 26.08735 36055 ft 420 kts 321°
2026-04-20 13:52 36.48437 26.04600 36054 ft 420 kts 321°
2026-04-20 13:53 36.53235 26.00463 36053 ft 420 kts 321°
2026-04-20 13:53 36.58034 25.96321 36054 ft 420 kts 321°
2026-04-20 13:54 36.62831 25.92170 36051 ft 420 kts 321°
2026-04-20 13:54 36.67631 25.88016 36050 ft 420 kts 321°
2026-04-20 13:55 36.72427 25.83853 36050 ft 420 kts 321°
2026-04-20 13:55 36.77222 25.79679 36049 ft 420 kts 321°
2026-04-20 13:56 36.82023 25.75507 36045 ft 420 kts 321°
2026-04-20 13:56 36.86821 25.71329 36048 ft 420 kts 321°
2026-04-20 13:57 36.91616 25.67146 36045 ft 420 kts 321°
2026-04-20 13:57 36.96409 25.62955 36044 ft 421 kts 321°
2026-04-20 13:58 37.01206 25.58764 36046 ft 421 kts 322°
2026-04-20 13:58 37.06005 25.54556 36040 ft 422 kts 321°
2026-04-20 13:59 37.10802 25.50331 36037 ft 421 kts 321°
2026-04-20 13:59 37.15592 25.46113 36044 ft 421 kts 322°
2026-04-20 14:00 37.20386 25.41893 36041 ft 421 kts 322°
2026-04-20 14:00 37.25182 25.37664 36038 ft 421 kts 322°
2026-04-20 14:01 37.29972 25.33430 36024 ft 421 kts 322°
2026-04-20 14:01 37.34762 25.29193 36018 ft 421 kts 322°
2026-04-20 14:02 37.39559 25.24943 36019 ft 422 kts 322°
2026-04-20 14:02 37.44319 25.20713 36013 ft 422 kts 322°
2026-04-20 14:03 37.49150 25.16418 36017 ft 422 kts 322°
2026-04-20 14:03 37.53913 25.12173 36039 ft 423 kts 322°
2026-04-20 14:04 37.58712 25.07887 36032 ft 422 kts 322°
2026-04-20 14:04 37.63509 25.03606 36029 ft 423 kts 322°
2026-04-20 14:05 37.68304 24.99312 36032 ft 423 kts 322°
2026-04-20 14:05 37.73102 24.95012 36028 ft 423 kts 322°
2026-04-20 14:06 37.77902 24.90701 35804 ft 423 kts 322°
2026-04-20 14:06 37.80290 24.88553 35374 ft 421 kts 322°
2026-04-20 14:06 37.82676 24.86406 34891 ft 420 kts 322°
2026-04-20 14:07 37.85047 24.84272 34279 ft 418 kts 322°
2026-04-20 14:07 37.87410 24.82143 33618 ft 417 kts 322°
2026-04-20 14:07 37.89773 24.80010 32909 ft 418 kts 322°
2026-04-20 14:07 37.92143 24.77866 32219 ft 420 kts 322°
2026-04-20 14:08 37.94526 24.75711 31549 ft 421 kts 322°
2026-04-20 14:08 37.96918 24.73550 30880 ft 423 kts 322°
2026-04-20 14:08 37.99319 24.71380 30234 ft 425 kts 322°
2026-04-20 14:08 38.01712 24.69212 29517 ft 422 kts 322°
2026-04-20 14:09 38.04080 24.67063 28786 ft 417 kts 322°
2026-04-20 14:09 38.06433 24.64926 28067 ft 415 kts 322°
2026-04-20 14:09 38.08767 24.62806 27423 ft 410 kts 322°
2026-04-20 14:09 38.11077 24.60711 26935 ft 407 kts 322°
2026-04-20 14:10 38.13371 24.58628 26470 ft 405 kts 322°
2026-04-20 14:10 38.15661 24.56541 26012 ft 403 kts 322°
2026-04-20 14:10 38.17935 24.54464 25559 ft 401 kts 322°
2026-04-20 14:10 38.20193 24.52404 25116 ft 399 kts 322°
2026-04-20 14:11 38.22445 24.50350 24681 ft 397 kts 323°
2026-04-20 14:11 38.24686 24.48305 24250 ft 396 kts 323°
2026-04-20 14:11 38.26919 24.46267 23826 ft 394 kts 323°
2026-04-20 14:11 38.29140 24.44237 23374 ft 392 kts 322°
2026-04-20 14:12 38.31346 24.42216 22884 ft 390 kts 322°
2026-04-20 14:12 38.33536 24.40208 22390 ft 387 kts 322°
2026-04-20 14:12 38.35714 24.38212 21913 ft 384 kts 323°
2026-04-20 14:12 38.37876 24.36227 21432 ft 382 kts 323°
2026-04-20 14:13 38.40024 24.34256 20974 ft 380 kts 323°
2026-04-20 14:13 38.42160 24.32295 20509 ft 377 kts 323°
2026-04-20 14:13 38.44286 24.30344 20067 ft 375 kts 323°
2026-04-20 14:13 38.46385 24.28416 19621 ft 370 kts 322°
2026-04-20 14:14 38.48425 24.26537 19170 ft 352 kts 322°
2026-04-20 14:14 38.50379 24.24737 18778 ft 345 kts 322°
2026-04-20 14:14 38.52318 24.22950 18374 ft 342 kts 322°
2026-04-20 14:14 38.54240 24.21175 17929 ft 340 kts 322°
2026-04-20 14:15 38.56150 24.19410 17467 ft 338 kts 322°
2026-04-20 14:15 38.58043 24.17659 17018 ft 332 kts 322°
2026-04-20 14:15 38.59874 24.15968 16608 ft 317 kts 322°
2026-04-20 14:15 38.61601 24.14373 16213 ft 308 kts 322°
2026-04-20 14:16 38.63335 24.12767 15842 ft 307 kts 322°
2026-04-20 14:16 38.65055 24.11173 15466 ft 305 kts 322°
2026-04-20 14:16 38.66768 24.09587 15097 ft 303 kts 322°
2026-04-20 14:16 38.68471 24.08008 14726 ft 302 kts 322°
2026-04-20 14:17 38.70164 24.06436 14365 ft 300 kts 322°
2026-04-20 14:17 38.71842 24.04879 14017 ft 293 kts 322°
2026-04-20 14:17 38.73455 24.03384 13678 ft 280 kts 322°
2026-04-20 14:17 38.75022 24.01925 13305 ft 277 kts 322°
2026-04-20 14:18 38.76578 24.00475 12939 ft 276 kts 322°
2026-04-20 14:18 38.78120 23.99038 12613 ft 271 kts 322°
2026-04-20 14:18 38.79609 23.97659 12305 ft 258 kts 322°
2026-04-20 14:18 38.81030 23.96340 11999 ft 247 kts 321°
2026-04-20 14:19 38.82420 23.95046 11700 ft 248 kts 321°
2026-04-20 14:19 38.83810 23.93751 11396 ft 245 kts 321°
2026-04-20 14:19 38.85184 23.92468 11099 ft 243 kts 321°
2026-04-20 14:19 38.86543 23.91198 10803 ft 240 kts 321°
2026-04-20 14:20 38.87885 23.89943 10507 ft 238 kts 321°
2026-04-20 14:20 38.89210 23.88700 10232 ft 234 kts 321°
2026-04-20 14:20 38.90517 23.87477 9968 ft 230 kts 321°
2026-04-20 14:20 38.91796 23.86282 9690 ft 225 kts 321°
2026-04-20 14:21 38.93054 23.85106 9410 ft 222 kts 321°
2026-04-20 14:21 38.94299 23.83943 9108 ft 219 kts 321°
2026-04-20 14:21 38.95524 23.82798 8822 ft 217 kts 321°
2026-04-20 14:21 38.96734 23.81664 8558 ft 213 kts 321°
2026-04-20 14:22 38.97924 23.80548 8295 ft 210 kts 321°
2026-04-20 14:22 38.99093 23.79452 8048 ft 206 kts 321°
2026-04-20 14:22 39.00239 23.78379 7789 ft 202 kts 321°
2026-04-20 14:22 39.01367 23.77321 7540 ft 199 kts 320°
2026-04-20 14:23 39.02483 23.76272 7294 ft 198 kts 320°
2026-04-20 14:23 39.03596 23.75227 7045 ft 198 kts 321°
2026-04-20 14:23 39.04707 23.74184 6800 ft 197 kts 320°
2026-04-20 14:23 39.05800 23.73159 6558 ft 193 kts 320°
2026-04-20 14:24 39.06879 23.72144 6312 ft 190 kts 320°
2026-04-20 14:24 39.07935 23.71146 6056 ft 188 kts 320°
2026-04-20 14:24 39.08987 23.70154 5809 ft 188 kts 321°
2026-04-20 14:24 39.10044 23.69159 5549 ft 188 kts 321°
2026-04-20 14:25 39.11105 23.68160 5299 ft 190 kts 321°
2026-04-20 14:25 39.12177 23.67149 5040 ft 191 kts 321°
2026-04-20 14:25 39.13246 23.66142 4809 ft 191 kts 321°
2026-04-20 14:25 39.14323 23.65127 4552 ft 192 kts 322°
2026-04-20 14:26 39.15403 23.64110 4295 ft 192 kts 321°
2026-04-20 14:26 39.16477 23.63098 4030 ft 190 kts 322°
2026-04-20 14:26 39.17568 23.62112 3784 ft 194 kts 330°
2026-04-20 14:26 39.18844 23.61599 3602 ft 191 kts 352°
2026-04-20 14:27 39.20158 23.61584 3497 ft 186 kts 357°
2026-04-20 14:27 39.21438 23.61576 3371 ft 180 kts 356°
2026-04-20 14:27 39.22659 23.61562 3240 ft 170 kts 357°
2026-04-20 14:27 39.23838 23.61541 3120 ft 170 kts 356°
2026-04-20 14:28 39.25020 23.61501 3010 ft 170 kts 356°
2026-04-20 14:28 39.26201 23.61459 2909 ft 170 kts 356°
2026-04-20 14:28 39.27383 23.61417 2812 ft 170 kts 356°
2026-04-20 14:28 39.28165 23.61391 2746 ft 170 kts 356°
2026-04-20 14:29 39.29707 23.61343 2612 ft 162 kts 356°
2026-04-20 14:29 39.30456 23.61319 2549 ft 163 kts 356°
2026-04-20 14:29 39.31586 23.61279 2449 ft 163 kts 354°
2026-04-20 14:29 39.32588 23.60751 2363 ft 157 kts 308°
2026-04-20 14:30 39.32893 23.59462 2250 ft 155 kts 258°
2026-04-20 14:30 39.32377 23.58264 2140 ft 155 kts 230°
2026-04-20 14:30 39.31688 23.57194 2058 ft 155 kts 230°
2026-04-20 14:30 39.30993 23.56127 2013 ft 155 kts 226°
2026-04-20 14:31 39.30110 23.55426 1962 ft 150 kts 198°
2026-04-20 14:31 39.29125 23.55015 1931 ft 149 kts 198°
2026-04-20 14:31 39.28158 23.54603 1811 ft 143 kts 198°
2026-04-20 14:31 39.27216 23.54197 1713 ft 143 kts 199°
2026-04-20 14:32 39.26266 23.53831 1621 ft 142 kts 193°
2026-04-20 14:32 39.25294 23.53577 1534 ft 143 kts 191°
2026-04-20 14:32 39.24320 23.53321 1365 ft 142 kts 193°
2026-04-20 14:32 39.23375 23.52951 1193 ft 143 kts 198°
2026-04-20 14:33 39.22439 23.52531 971 ft 143 kts 199°
2026-04-20 14:33 39.21501 23.52090 784 ft 143 kts 199°
2026-04-20 14:33 39.20567 23.51650 574 ft 142 kts 198°
2026-04-20 14:33 39.19652 23.51221 354 ft 140 kts 198°
2026-04-20 14:34 39.18738 23.50814 149 ft 138 kts 197°
2026-04-20 14:34 39.17852 23.50424 41 ft 124 kts 199°
2026-04-20 14:34 39.17309 23.50180 28 ft 39 kts 198°
2026-04-20 14:34 39.17134 23.50103 21 ft 14 kts 199°
2026-04-20 14:35 39.17050 23.50084 18 ft 11 kts 159°
2026-04-20 14:35 39.17032 23.50047 16 ft 6 kts 351°
2026-04-20 14:35 39.17058 23.50059 18 ft 3 kts 23°
2026-04-20 14:35 39.17082 23.50073 22 ft 4 kts 24°
2026-04-20 14:36 39.17123 23.50096 20 ft 9 kts 21°
2026-04-20 14:36 39.17204 23.50133 22 ft 16 kts 19°
2026-04-20 14:36 39.17319 23.50184 29 ft 17 kts 20°
2026-04-20 14:36 39.17411 23.50224 31 ft 11 kts 18°
2026-04-20 14:37 39.17471 23.50250 33 ft 7 kts 19°
2026-04-20 14:37 39.17525 23.50271 34 ft 9 kts
2026-04-20 14:37 39.17577 23.50218 35 ft 10 kts 315°
2026-04-20 14:37 39.17642 23.50219 36 ft 10 kts 21°
2026-04-20 14:38 39.17692 23.50231 37 ft 6 kts 321°
2026-04-20 14:38 39.17703 23.50198 37 ft 0 kts 285°
2026-04-20 14:38 39.17704 23.50195 36 ft 0 kts 285°
2026-04-20 14:39 39.17704 23.50192 36 ft 0 kts 295°